Weather reports worldwide

Advertisment
Trier-Petrisberg, Germany (10609): temperature & dewpoint: 13.01.2021 06:00:00 - 19.01.2021 06:00:00 (CET)Trier-Petrisberg, Germany (10609): temperature 5cm & temperature -5cm: 13.01.2021 06:00:00 - 19.01.2021 06:00:00 (CET)Trier-Petrisberg, Germany (10609): temperature -20cm & temperature -100cm: 13.01.2021 06:00:00 - 19.01.2021 06:00:00 (CET)Trier-Petrisberg, Germany (10609): wind speed & gusts: 13.01.2021 06:00:00 - 19.01.2021 06:00:00 (CET)Trier-Petrisberg, Germany (10609): wind direction: 13.01.2021 06:00:00 - 19.01.2021 06:00:00 (CET)Trier-Petrisberg, Germany (10609): reduced air pressure: 13.01.2021 06:00:00 - 19.01.2021 06:00:00 (CET)Trier-Petrisberg, Germany (10609): visibility: 13.01.2021 06:00:00 - 19.01.2021 06:00:00 (CET)Trier-Petrisberg, Germany (10609): sunshine duration: 13.01.2021 06:00:00 - 19.01.2021 06:00:00 (CET)Trier-Petrisberg, Germany (10609): precipitation: 13.01.2021 06:00:00 - 19.01.2021 06:00:00 (CET)
Date & Time tt [°C] td [°C] tt 5cm [°C] tt -5cm [°C] tt -20cm [°C] tt -100cm [°C] ff [km/h] ff [kn] fx [km/h] fx [kn] dd ppp [hPa] vv [km] sd [min] rr [mm]
19.01.2021 06:00:00 2,8 -0,9 2,2 1,9 2,8 4,6 26 14 36 19 SW 1018,6 56 0 0,0
19.01.2021 05:00:00 2,9 -0,9 2,2 2,0 2,8 4,6 23 12 42 23 SSW 1019,5 45 0 0,0
19.01.2021 04:00:00 3,0 -0,8 2,4 2,0 2,8 4,6 28 15 42 23 SSW 1020,1 47 0 0,0
19.01.2021 03:00:00 2,9 -0,7 2,3 2,1 2,8 4,6 25 13 41 22 SSW 1021,2 45 0 0,0
19.01.2021 02:00:00 2,7 -0,4 2,1 2,2 2,8 4,6 18 10 32 17 SW 1022,1 50 0 0,0
19.01.2021 01:00:00 2,9 -0,3 2,4 2,3 2,8 4,6 24 13 40 21 SW 1022,8 52 0 0,0
19.01.2021 00:00:00 3,0 0,1 2,5 2,4 2,8 4,6 27 14 39 21 SW 1023,5 43 0 0,0
18.01.2021 23:00:00 3,1 0,9 2,7 2,4 2,8 4,6 25 13 40 22 SW 1023,8 36 0 0,0
18.01.2021 22:00:00 3,3 1,3 2,9 2,5 2,8 4,6 30 16 44 24 SW 1024,0 33 0 0,0
18.01.2021 21:00:00 3,3 1,3 2,9 2,4 2,8 4,6 26 14 36 20 SW 1024,4 28 0 0,0
18.01.2021 20:00:00 3,2 1,1 2,7 2,4 2,8 4,6 26 14 38 20 SW 1024,5 30 0 0,0
18.01.2021 19:00:00 3,0 0,9 2,6 2,5 2,8 4,6 19 10 32 18 SW 1024,7 29 0 0,0
18.01.2021 18:00:00 2,8 0,6 2,4 2,6 2,7 4,6 21 11 33 18 SW 1024,9 29 0 0,0
18.01.2021 17:00:00 2,8 0,8 2,5 2,8 2,7 4,6 21 11 34 19 SW 1025,0 25 0 0,0
18.01.2021 16:00:00 2,9 0,9 2,7 3,0 2,6 4,6 19 10 30 16 SW 1025,1 25 0 0,0
18.01.2021 15:00:00 3,0 1,0 3,0 3,1 2,5 4,6 21 11 32 18 SW 1025,3 27 0 0,0
18.01.2021 14:00:00 3,0 0,8 3,5 3,0 2,4 4,6 17 9 34 18 SW 1025,7 26 0 0,0
18.01.2021 13:00:00 3,0 0,9 3,3 2,8 2,2 4,6 23 12 35 19 SW 1026,5 28 0 0,0
18.01.2021 12:00:00 2,9 1,1 3,4 2,3 2,1 4,6 21 11 31 17 SW 1026,8 29 0 0,0
18.01.2021 11:00:00 2,3 0,9 2,6 1,7 2,1 4,6 17 9 27 14 SW 1027,0 19 0 0,0
18.01.2021 10:00:00 1,9 1,0 1,7 1,4 2,1 4,6 14 8 21 11 SW 1027,0 10 0 0,0
18.01.2021 09:00:00 1,6 0,7 0,7 1,3 2,1 4,6 13 7 20 11 SSW 1027,0 11 0 0,0
18.01.2021 08:00:00 1,7 0,7 1,1 1,2 2,1 4,6 15 8 21 12 SSW 1026,6 13 0 0,0
18.01.2021 07:00:00 1,4 0,6 1,0 1,2 2,0 4,6 10 5 18 10 WSW 1026,4 10 0 0,0
18.01.2021 06:00:00 1,4 0,5 1,0 1,2 2,0 4,6 12 6 18 10 SSW 1026,4 16 0 0,0
18.01.2021 05:00:00 1,4 0,2 0,9 1,1 2,0 4,6 10 6 18 10 SW 1026,2 20 0 0,0
18.01.2021 04:00:00 1,4 0,4 0,9 1,1 2,0 4,6 13 7 20 11 WSW 1026,4 19 0 0,0
18.01.2021 03:00:00 1,9 0,1 1,0 1,3 2,0 4,7 12 7 19 10 WSW 1026,3 29 0 0,0
18.01.2021 02:00:00 1,9 0,5 1,4 1,3 2,0 4,7 11 6 18 10 WSW 1026,1 20 0 0,0
18.01.2021 01:00:00 2,1 0,5 1,5 1,3 1,9 4,7 13 7 19 11 SW 1026,2 23 0 0,0
18.01.2021 00:00:00 2,3 0,7 1,6 1,3 1,9 4,7 13 7 20 11 SW 1026,0 21 0 0,0
17.01.2021 23:00:00 2,2 1,0 1,5 1,2 1,9 4,7 13 7 19 11 SW 1025,7 16 0 0,0
17.01.2021 22:00:00 2,2 1,3 1,5 1,1 1,8 4,7 10 6 16 9 SW 1025,4 14 0 0,0
17.01.2021 21:00:00 2,4 1,6 1,6 0,9 1,8 4,7 9 5 16 9 SW 1024,7 12 0 0,0
17.01.2021 20:00:00 2,3 1,5 1,5 0,8 1,8 4,7 10 5 16 9 WSW 1024,6 10 0 0,0
17.01.2021 19:00:00 2,3 1,4 1,4 0,7 1,8 4,7 9 5 18 10 SW 1024,1 14 0 0,0
17.01.2021 18:00:00 2,7 1,2 1,7 0,7 1,8 4,7 11 6 19 10 W 1023,4 22 0 0,0
17.01.2021 17:00:00 3,3 1,1 2,0 0,7 1,8 4,7 8 4 15 8 W 1022,3 30 0 0,0
17.01.2021 16:00:00 2,6 1,0 1,9 0,7 1,8 4,7 5 3 14 8 SW 1021,6 17 4 0,0
17.01.2021 15:00:00 1,8 0,6 1,4 0,6 1,8 4,7 8 4 10 6 SW 1020,9 11 0 0,0
17.01.2021 14:00:00 1,7 0,2 1,7 0,6 1,8 4,7 7 4 12 6 SW 1020,4 15 0 0,0
17.01.2021 13:00:00 0,5 -0,6 0,6 0,6 1,8 4,7 7 4 11 6 SSW 1020,2 9 0 0,0
17.01.2021 12:00:00 -0,3 -0,9 0,0 0,6 1,8 4,7 6 3 8 4 SW 1020,1 3,5 0 0,0
17.01.2021 11:00:00 -0,7 -1,4 -0,3 0,6 1,8 4,7 6 3 8 4 SW 1019,8 4,0 0 0,0
17.01.2021 10:00:00 -1,2 -1,8 -0,6 0,5 1,8 4,7 4 2 9 5 SW 1019,1 2,7 0 0,0
17.01.2021 09:00:00 -1,8 -2,2 -1,8 0,5 1,8 4,7 5 3 9 5 S 1018,7 3,1 0 0,2
17.01.2021 08:00:00 -1,8 -2,2 -1,8 0,5 1,8 4,7 5 3 10 5 SSW 1017,9 3,0 0 0,0
17.01.2021 07:00:00 -2,1 -2,6 -2,1 0,5 1,8 4,7 8 4 13 7 SW 1017,7 3,6 0 0,0
17.01.2021 06:00:00 -2,2 -2,7 -2,2 0,5 1,8 4,8 7 4 15 8 SSW 1017,7 4,3 0 0,0
17.01.2021 05:00:00 -2,5 -3,4 -2,5 0,5 1,8 4,8 9 5 13 7 WSW 1017,9 6 0 0,0
17.01.2021 04:00:00 -2,7 -3,2 -2,6 0,5 1,9 4,8 4 2 9 5 SW 1017,4 4,3 0 0,0
17.01.2021 03:00:00 -2,8 -3,4 -2,8 0,5 1,9 4,8 7 4 11 6 SW 1017,8 4,5 0 0,0
17.01.2021 02:00:00 -3,0 -3,5 -2,9 0,5 1,9 4,8 6 3 10 5 W 1017,8 1,9 0 0,1
17.01.2021 01:00:00 -3,1 -3,6 -3,0 0,5 1,9 4,8 8 4 12 6 WSW 1018,4 1,4 0 0,2
17.01.2021 00:00:00 -3,1 -4,0 -3,0 0,5 1,9 4,8 6 3 11 6 WSW 1019,2 3,3 0 0,0
16.01.2021 23:00:00 -3,2 -4,1 -3,1 0,5 1,9 4,8 6 3 10 5 SSW 1019,8 4,0 0 0,0
16.01.2021 22:00:00 -3,5 -4,1 -3,2 0,6 1,9 4,8 5 3 9 5 S 1020,4 3,0 0 0,1
16.01.2021 21:00:00 -3,6 -4,0 -3,4 0,6 1,9 4,8 6 3 15 8 SW 1021,8 1,9 0 0,7
16.01.2021 20:00:00 -3,5 -4,1 -3,3 0,6 2,0 4,8 9 5 29 16 SW 1022,2 1,1 0 0,3
16.01.2021 19:00:00 -2,8 -4,2 -2,4 0,6 2,0 4,8 15 8 29 16 SW 1022,5 2,3 0 0,0
16.01.2021 18:00:00 -2,2 -4,7 -2,0 0,7 2,0 4,8 18 10 24 13 SW 1023,2 20 0 0,0
16.01.2021 17:00:00 -1,8 -4,6 -1,8 0,8 2,0 4,8 19 10 29 16 SSW 1024,2 20 0 0,0
16.01.2021 16:00:00 -1,3 -5,3 -1,3 1,1 2,0 4,8 18 10 27 14 SSW 1024,7 27 0 0,0
16.01.2021 15:00:00 -0,7 -4,8 -0,5 1,2 1,9 4,8 19 10 27 14 SSW 1025,4 25 0 0,0
16.01.2021 14:00:00 -0,5 -5,5 0,2 0,9 1,9 4,8 18 10 25 14 SSW 1026,1 33 1 0,0
16.01.2021 13:00:00 -0,5 -5,0 0,6 0,6 1,9 4,8 12 7 22 12 SW 1027,1 35 12 0,0
16.01.2021 12:00:00 -0,8 -6,7 -0,5 0,6 1,9 4,8 13 7 24 13 S 1028,0 52 0 0,0
16.01.2021 11:00:00 -1,1 -5,2 -0,7 0,6 1,9 4,8 7 4 13 7 S 1028,5 45 0 0,0
16.01.2021 10:00:00 -1,8 -4,3 -1,5 0,6 2,0 4,9 6 3 8 4 SSW 1028,8 23 0 0,0
16.01.2021 09:00:00 -2,1 -4,3 -2,0 0,6 2,0 4,9 7 4 10 6 WSW 1029,3 19 0 0,0
16.01.2021 08:00:00 -2,2 -4,0 -2,2 0,6 2,0 4,9 7 4 8 5 WSW 1029,4 18 0 0,0
16.01.2021 07:00:00 -1,8 -3,7 -2,0 0,6 2,0 4,9 3 2 10 5 SE 1029,5 18 0 0,0
16.01.2021 06:00:00 -1,7 -3,8 -1,9 0,6 2,0 4,9 6 3 13 7 ENE 1029,7 19 0 0,0
16.01.2021 05:00:00 -1,3 -4,7 -1,7 0,6 2,0 4,9 3 2 5 3 N 1030,0 28 0 0,0
16.01.2021 04:00:00 -1,4 -3,8 -1,6 0,6 2,1 4,9 4 2 10 6 NNW 1030,1 19 0 0,0
16.01.2021 03:00:00 -1,0 -3,8 -1,4 0,6 2,1 4,9 3 2 6 4 E 1030,2 20 0 0,0
16.01.2021 02:00:00 -0,9 -4,1 -1,3 0,6 2,1 4,9 3 2 10 5 W 1030,2 22 0 0,0
16.01.2021 01:00:00 -0,6 -4,4 -1,0 0,7 2,1 4,9 6 3 16 8 NNE 1030,3 28 0 0,0
16.01.2021 00:00:00 -0,5 -4,5 -1,1 0,7 2,2 4,9 7 4 16 9 N 1030,6 35 0 0,0
15.01.2021 23:00:00 -0,5 -3,8 -1,5 0,7 2,2 4,9 0 0 5 3 N 1030,5 28 0 0,0
15.01.2021 22:00:00 -0,4 -3,7 -1,2 0,8 2,3 4,9 4 2 7 4 ENE 1030,3 25 0 0,0
15.01.2021 21:00:00 -0,3 -3,6 -1,1 0,8 2,3 4,9 5 3 8 4 W 1030,0 29 0 0,0
15.01.2021 20:00:00 -0,2 -3,7 -0,9 0,9 2,4 4,9 5 3 12 7 NNE 1029,7 35 0 0,0
15.01.2021 19:00:00 -0,4 -4,0 -2,1 1,1 2,4 4,9 9 5 16 9 N 1029,5 33 0 0,0
15.01.2021 18:00:00 0,5 -4,0 -0,4 1,5 2,4 4,9 6 3 27 15 NNE 1028,9 39 0 0,0
15.01.2021 17:00:00 1,1 -4,1 0,4 1,9 2,3 4,9 13 7 23 13 NNE 1028,2 42 33 0,0
15.01.2021 16:00:00 1,6 -5,7 2,1 2,4 2,2 4,9 19 10 29 16 NE 1027,3 61 60 0,0
15.01.2021 15:00:00 1,9 -5,8 4,1 2,1 2,1 4,9 14 8 28 15 NE 1026,7 61 60 0,0
15.01.2021 14:00:00 1,4 -5,5 2,8 1,0 2,0 4,9 12 7 33 18 NNE 1026,7 53 45 0,0
15.01.2021 13:00:00 1,4 -5,4 3,4 0,6 2,1 4,9 15 8 26 14 NE 1026,7 63 53 0,0
15.01.2021 12:00:00 0,0 -4,5 0,0 0,6 2,1 4,9 14 8 26 14 NE 1026,7 50 1 0,0
15.01.2021 11:00:00 -0,9 -4,6 -0,9 0,6 2,1 4,9 11 6 19 10 NNE 1026,3 65 19 0,0
15.01.2021 10:00:00 -1,9 -5,3 -3,6 0,6 2,1 4,9 10 6 15 8 NNE 1025,5 60 16 0,0
15.01.2021 09:00:00 -2,4 -5,3 -4,0 0,6 2,1 4,9 11 6 19 10 NE 1024,5 53 0 0,0
15.01.2021 08:00:00 -2,3 -5,3 -4,0 0,6 2,2 4,9 12 6 22 12 NE 1023,4 59 0 0,0
15.01.2021 07:00:00 -2,0 -5,1 -3,4 0,6 2,2 4,9 17 9 26 14 NE 1022,4 52 0 0,0
15.01.2021 06:00:00 -1,8 -4,9 -2,9 0,7 2,3 4,9 17 9 30 16 NE 1021,7 52 0 0,0
15.01.2021 05:00:00 -1,6 -4,8 -2,8 0,7 2,3 4,9 19 10 33 18 NNE 1021,1 59 0 0,0
15.01.2021 04:00:00 -1,3 -4,5 -2,6 0,8 2,3 4,9 17 9 29 15 NE 1020,3 61 0 0,0
15.01.2021 03:00:00 -0,7 -4,4 -1,8 0,8 2,4 4,9 19 11 31 17 NE 1019,5 55 0 0,0
15.01.2021 02:00:00 -0,5 -3,8 -1,4 1,0 2,4 4,9 21 11 34 18 NE 1018,7 46 0 0,0
15.01.2021 01:00:00 0,0 -3,0 -0,6 1,0 2,4 4,9 22 12 34 19 NE 1018,2 44 0 0,0
15.01.2021 00:00:00 0,0 -2,7 -0,5 1,1 2,5 4,9 22 12 33 18 NE 1017,7 38 0 0,0
14.01.2021 23:00:00 -0,2 -2,3 -0,8 1,1 2,5 4,9 19 10 31 17 NE 1017,2 27 0 0,0
14.01.2021 22:00:00 -0,5 -1,8 -0,7 1,1 2,6 4,9 18 10 29 16 NE 1017,3 4,4 0 0,2
14.01.2021 21:00:00 -0,4 -1,4 -0,6 1,2 2,6 4,9 17 9 28 15 NE 1017,2 3,0 0 0,1
14.01.2021 20:00:00 0,1 -1,2 -0,1 1,5 2,7 4,9 18 10 23 12 NE 1017,5 4,8 0 0,0
14.01.2021 19:00:00 0,5 -1,8 0,0 1,6 2,7 4,9 9 5 18 10 E 1017,8 51 0 0,0
14.01.2021 18:00:00 0,3 -1,9 -0,2 1,8 2,7 4,9 7 4 13 7 E 1018,3 75 0 0,0
14.01.2021 17:00:00 0,4 -2,1 0,0 2,1 2,7 4,9 9 5 21 11 ESE 1018,5 49 0 0,0
14.01.2021 16:00:00 0,6 -1,8 0,2 2,3 2,7 4,9 11 6 17 9 SE 1018,8 39 0 0,0
14.01.2021 15:00:00 0,6 -0,9 0,5 2,7 2,6 4,9 4 2 9 5 W 1019,0 6 0 0,0
14.01.2021 14:00:00 1,4 -0,2 1,8 2,7 2,5 4,9 4 2 6 4 W 1019,4 27 0 0,0
14.01.2021 13:00:00 1,1 -0,3 1,9 2,0 2,4 4,9 4 2 11 6 N 1020,1 20 0 0,0
14.01.2021 12:00:00 0,7 -0,7 0,5 1,6 2,4 4,9 3 1 8 4 SW 1020,3 22 0 0,0
14.01.2021 11:00:00 0,4 -0,4 0,0 1,3 2,4 4,9 4 2 6 4 N 1020,6 11 0 0,0
14.01.2021 10:00:00 0,1 -0,8 -0,1 1,1 2,4 4,9 3 1 8 5 N 1020,0 27 0 0,0
14.01.2021 09:00:00 0,1 -1,0 -0,1 1,1 2,5 4,9 7 4 23 13 NE 1019,4 23 0 0,2
14.01.2021 08:00:00 0,1 -0,5 0,0 1,2 2,5 4,9 16 8 27 15 NNE 1019,3 3,2 0 0,6
14.01.2021 07:00:00 0,7 0,2 0,1 1,5 2,6 4,9 3 2 14 7 NNW 1018,6 3,5 0 0,4
14.01.2021 06:00:00 1,1 0,5 0,8 1,6 2,6 4,9 9 5 13 7 WSW 1018,1 6 0 0,3
14.01.2021 05:00:00 1,6 0,3 1,0 1,7 2,6 4,9 10 5 16 8 SW 1017,9 15 0 0,1
14.01.2021 04:00:00 1,7 0,0 1,0 1,7 2,6 4,9 10 6 16 8 SW 1017,6 24 0 0,0
14.01.2021 03:00:00 1,9 -0,3 1,2 1,8 2,6 4,9 7 4 11 6 SW 1017,7 34 0 0,0
14.01.2021 02:00:00 2,1 -0,6 1,4 1,9 2,6 4,9 6 3 17 9 W 1017,2 44 0 0,0
14.01.2021 01:00:00 2,8 -0,9 1,9 2,0 2,5 5,0 9 5 20 11 W 1017,2 56 0 0,0
14.01.2021 00:00:00 3,3 -0,6 2,3 2,1 2,5 5,0 10 5 24 13 WNW 1016,8 61 0 0,0
13.01.2021 23:00:00 3,4 2,0 2,6 2,1 2,5 5,0 11 6 19 10 W 1016,3 34 0 0,0
13.01.2021 22:00:00 3,1 2,4 2,6 2,0 2,4 5,0 11 6 18 10 WSW 1015,9 13 0 0,0
13.01.2021 21:00:00 2,6 2,0 2,3 2,0 2,4 5,0 9 5 13 7 SW 1015,8 11 0 0,0
13.01.2021 20:00:00 2,4 1,8 2,1 1,9 2,4 5,0 8 4 14 8 SW 1015,8 10 0 0,0
13.01.2021 19:00:00 2,4 1,6 2,0 1,9 2,3 5,0 7 4 18 10 SW 1016,0 12 0 0,0
13.01.2021 18:00:00 2,2 1,3 1,9 1,9 2,3 5,0 12 6 26 14 SW 1016,1 16 0 0,0
13.01.2021 17:00:00 2,1 0,5 1,7 1,9 2,2 5,0 18 10 29 15 SW 1016,8 22 0 0,0
13.01.2021 16:00:00 2,6 0,0 2,1 1,9 2,1 5,0 21 12 29 16 SW 1017,3 37 0 0,0
13.01.2021 15:00:00 3,1 -0,4 2,1 1,6 2,0 5,0 20 11 34 19 WSW 1017,5 47 1 0,0
13.01.2021 14:00:00 2,7 -0,3 2,4 0,7 2,0 5,0 16 9 31 17 SW 1018,6 43 4 0,0
13.01.2021 13:00:00 2,4 -0,2 2,2 0,5 2,0 5,0 19 11 30 16 SW 1019,4 38 53 0,0
13.01.2021 12:00:00 2,3 -0,2 2,9 0,5 2,0 5,0 18 10 28 15 SW 1020,3 38 40 0,0
13.01.2021 11:00:00 1,0 -0,6 0,3 0,5 2,0 5,0 17 9 22 12 SW 1020,8 29 4 0,0
13.01.2021 10:00:00 0,0 -0,8 -0,2 0,5 2,0 5,0 13 7 17 9 SW 1020,9 16 0 0,0
13.01.2021 09:00:00 -1,0 -1,4 -1,8 0,5 2,1 5,0 10 6 16 9 SW 1020,8 14 0 0,0
13.01.2021 08:00:00 -0,7 -1,3 -1,2 0,5 2,1 5,0 13 7 17 9 SW 1020,6 13 0 0,0
13.01.2021 07:00:00 -1,6 -1,8 -2,3 0,5 2,1 5,0 9 5 12 7 SW 1020,5 5 0 0,0
13.01.2021 06:00:00 -1,5 -1,8 -1,7 0,6 2,1 5,0 7 4 9 5 WSW 1020,6 7 0 0,0

tt = temperature
td = dewpoint
tt 5cm = temperature 5cm
tt -5cm = temperature -5cm
tt -20cm = temperature -20cm
tt -100cm = temperature -100cm
ff = wind speed
fx = gusts
dd = wind direction
ppp = reduced air pressure
vv = visibility
sd = sunshine duration
rr = precipitation

Next stations